Theta_e
339 340 337 339 338 339 338 338 339 341 337 332 329 329 329 329 329 333 337 336 336 336 337 337 337 336 334 336 338 338 334 330 331 335 339 339 333 332 334 328 328 331 336
342 341 337 335 334 333 333 334 332 338 334 333 332 331 334 335 341 340 339 341 341 334 335 336 337 337 333 332 337 337 332 332 334 338 341 344 330 328 329 333 335 336 335
340 341 341 339 340 337 340 340 338 337 339 341 341 337 340 340 334 332 333 336 338 335 335 334 336 337 336 333 331 331 332 334 334 334 334 333 332 332 329 327 328 340 340
338 340 341 338 338 340 338 339 338 340 340 337 337 338 332 341 340 341 331 330 334 335 335 335 334 336 337 336 332 334 333 339 336 336 336 335 335 335 334 330 327 327 329
335 339 334 337 337 340 336 337 338 335 338 339 337 337 339 334 337 334 338 338 338 333 334 335 335 335 337 336 344 344 342 342 342 340 338 338 336 336 334 333 330 332 330
336 336 333 334 336 338 339 329 329 336 339 337 340 338 340 337 336 339 339 340 341 340 338 336 336 336 336 343 343 342 338 338 338 340 338 333 339 342 333 332 329 329 329
336 332 333 335 333 333 335 326 326 329 332 336 334 333 334 335 337 339 338 335 334 335 338 337 337 338 342 343 343 343 338 337 334 329 328 327 331 331 331 329 331 335 327
330 328 335 330 329 327 326 325 328 330 333 333 332 333 334 333 332 332 332 334 335 336 335 338 338 338 343 343 342 340 338 336 333 330 327 326 329 332 331 326 327 326 326
332 333 329 327 329 328 330 330 330 330 331 331 332 335 339 340 340 340 339 338 338 338 338 337 338 337 342 341 338 338 337 342 342 339 336 334 333 334 335 336 336 336 336
336 333 329 329 328 329 336 339 339 339 339 340 341 341 341 340 338 340 339 339 339 338 337 337 337 338 338 337 340 339 341 342 341 339 339 340 339 336 334 331 330 337 339
333 331 328 328 333 338 340 341 340 341 341 341 342 344 343 339 338 339 339 339 339 338 336 337 337 336 337 342 341 340 342 342 341 337 337 336 333 327 324 323 322 321 321
328 328 327 333 338 340 342 342 341 341 343 347 346 342 340 338 339 340 340 337 336 338 336 337 336 337 338 341 339 340 341 341 342 336 336 333 328 326 326 323 321 319 318
329 327 338 343 346 345 343 342 344 345 347 347 343 340 339 339 339 341 344 342 337 338 337 336 334 335 340 340 340 340 338 340 337 334 331 331 329 330 332 325 323 319 318
336 340 343 345 347 346 346 343 344 344 344 345 346 345 341 339 340 339 343 345 343 339 338 337 338 338 340 341 342 343 340 333 334 335 336 337 335 334 336 327 326 325 320
344 344 345 347 348 349 347 340 341 344 344 342 344 342 339 340 340 338 341 344 345 345 343 343 342 342 342 343 343 343 343 338 335 341 341 338 339 337 337 330 332 330 320
344 345 346 346 347 348 347 342 344 344 344 344 346 347 345 340 341 342 342 341 344 347 348 346 346 345 346 345 344 344 344 344 338 343 343 340 339 339 338 335 334 334 331
343 345 346 344 345 346 346 345 340 340 344 343 347 348 347 342 343 345 342 343 343 344 346 345 346 347 346 345 345 344 344 345 344 345 344 343 341 340 339 338 334 336 335
342 345 347 345 346 346 346 347 348 344 346 345 349 346 345 345 345 345 345 345 347 347 345 346 345 346 347 346 345 344 344 344 345 345 344 345 344 342 340 340 338 335 336
342 344 344 346 346 346 347 348 348 348 347 346 350 347 348 345 345 344 346 343 346 345 346 347 346 345 345 346 345 345 345 345 345 345 345 346 346 343 342 340 339 338 336
341 343 344 345 345 346 346 349 349 346 346 346 351 350 347 343 344 344 344 346 345 344 344 345 346 345 346 346 345 345 345 345 346 345 345 345 345 344 342 341 340 339 337
342 343 344 343 344 346 347 348 349 348 348 345 348 350 348 347 350 348 347 342 342 343 344 343 345 344 346 346 346 345 345 346 346 346 344 340 341 340 341 338 337 338 337
342 342 343 338 343 345 348 349 350 351 347 348 346 350 348 349 350 348 349 343 343 340 341 343 346 345 346 345 346 346 346 344 342 343 342 336 334 333 329 330 330 333 333
341 340 342 340 341 346 349 349 350 352 350 349 349 345 349 350 350 350 351 350 332 335 341 343 345 347 346 346 345 344 345 344 344 341 338 336 336 334 331 330 330 329 328
340 339 338 344 340 347 349 346 349 347 349 350 350 347 345 350 350 351 349 347 336 334 338 340 343 345 346 345 345 345 344 344 341 339 331 333 335 332 332 331 330 331 330
339 339 338 343 345 346 347 346 350 346 348 348 350 346 342 349 346 348 343 349 344 329 330 336 339 333 339 344 343 339 339 328 328 331 324 324 328 328 328 328 329 330 331
339 339 339 339 346 344 345 346 349 349 349 350 350 345 345 350 349 351 348 350 347 336 325 330 330 331 328 327 328 327 325 325 326 328 326 323 326 331 331 329 327 330 330
Wind_Speed
15 14 13 14 14 14 14 14 14 16 14 14 13 12 12 13 13 14 14 14 14 13 13 13 13 13 14 15 15 17 16 17 16 15 14 14 13 12 11 11 11 13 13
18 15 15 14 15 14 14 14 14 15 14 14 14 12 12 14 15 14 15 15 13 13 13 13 13 14 15 15 15 16 16 15 15 15 15 13 13 12 11 9 10 11 10
18 17 15 14 15 14 15 15 15 15 15 15 14 14 15 15 16 15 15 15 14 15 15 14 14 14 14 14 13 14 16 15 13 12 12 11 11 11 10 8 8 9 8
17 18 16 15 15 16 15 15 15 16 15 16 16 16 16 16 15 15 15 15 15 15 16 15 14 14 14 14 15 14 15 15 15 12 10 8 10 9 8 7 7 7 7
18 17 16 16 17 17 16 16 15 16 17 16 16 15 15 15 15 16 15 15 14 14 15 17 15 15 15 15 15 15 12 8 7 7 8 7 7 7 6 7 6 5 5
19 17 16 16 16 16 15 15 15 16 15 16 15 15 15 14 13 14 13 12 12 13 15 17 18 17 17 18 17 17 13 12 12 7 5 5 5 5 4 4 4 3 2
18 16 17 15 16 16 16 15 16 16 16 16 16 14 14 12 11 10 10 10 10 11 13 15 18 19 20 16 16 13 13 13 9 8 6 5 4 4 4 4 4 2 1
17 17 17 16 17 16 16 17 16 16 16 15 13 13 12 11 10 8 8 7 8 9 13 16 18 18 17 14 12 12 13 13 11 9 8 7 6 5 4 4 3 2 1
16 17 17 17 18 17 16 17 16 15 15 14 13 12 12 11 11 9 9 7 8 10 14 18 19 19 16 11 8 9 11 11 11 9 8 8 6 5 5 4 4 2 2
16 16 17 17 18 18 17 17 16 15 14 14 13 12 12 13 13 11 10 9 9 11 14 21 20 20 17 12 11 14 10 9 9 8 6 6 7 6 5 5 3 3 3
17 16 17 18 20 19 16 16 15 15 14 13 13 12 14 14 14 12 13 12 12 13 18 24 22 20 20 14 11 11 8 8 8 6 7 7 7 7 7 6 5 5 4
19 18 19 20 18 17 15 14 15 16 14 13 12 14 13 15 15 16 16 15 17 19 22 26 24 25 19 16 12 8 6 5 5 6 7 7 7 8 9 8 8 7 6
21 22 22 21 18 16 15 16 17 15 11 11 12 13 15 14 14 15 15 17 18 21 23 24 23 19 18 15 11 8 6 4 5 7 8 8 8 9 9 9 7 7 7
23 23 21 19 18 16 13 15 15 12 14 12 9 8 10 12 12 13 14 16 17 22 23 22 21 19 17 12 9 6 6 7 6 7 8 7 8 7 10 8 10 9 8
23 23 20 17 15 14 15 18 16 12 10 10 14 11 11 11 8 13 16 15 16 17 19 19 17 15 13 10 7 5 4 3 4 7 7 6 6 6 9 7 10 12 11
22 20 18 16 15 16 16 18 16 14 13 11 14 12 12 12 12 13 14 13 14 15 14 13 11 10 10 8 7 3 3 3 2 2 4 3 2 2 6 10 7 11 11
20 19 18 17 17 13 16 18 16 15 14 12 12 11 11 15 13 16 17 17 15 13 13 13 12 10 10 8 5 4 4 4 2 1 2 4 5 4 4 7 8 8 10
21 19 18 18 19 15 14 12 13 15 13 14 12 12 15 16 14 15 16 16 16 14 12 10 11 10 9 6 5 5 4 4 1 3 4 4 4 5 5 5 7 8 9
22 21 17 20 20 17 15 11 11 15 15 13 13 9 11 10 13 13 15 17 15 12 10 11 12 10 8 8 5 5 3 1 3 5 6 6 7 6 6 6 7 8 8
23 23 19 18 21 22 18 14 15 15 16 16 12 9 7 10 13 12 12 13 12 11 9 8 9 10 9 8 9 5 3 5 7 6 8 9 9 9 9 9 8 8 10
27 25 21 19 27 26 22 16 12 14 17 17 15 12 9 9 8 8 7 8 10 9 8 8 9 9 6 8 6 7 7 9 8 11 11 9 9 9 11 11 11 10 10
30 25 20 25 31 30 24 20 14 17 17 13 13 14 14 9 7 6 5 6 11 13 14 14 11 10 8 9 7 8 5 9 11 11 11 11 8 10 11 10 11 11 11
34 29 23 25 35 31 25 22 16 16 19 16 13 14 14 10 9 10 6 5 7 15 16 16 16 13 11 11 12 8 4 6 9 12 14 13 12 13 13 13 10 10 10
37 31 25 26 34 31 26 27 22 18 23 17 10 8 12 12 10 9 6 7 6 12 17 18 17 16 15 14 16 15 15 15 7 8 11 14 16 16 16 17 14 11 10
39 35 28 28 29 34 27 27 23 21 21 16 12 9 13 14 10 9 7 7 8 10 16 18 17 14 14 16 16 15 14 12 11 12 17 13 14 15 14 15 15 13 11
42 38 32 30 31 31 32 30 25 22 22 21 16 12 16 16 13 10 8 9 8 9 14 16 16 14 12 12 13 13 10 10 10 11 14 15 16 12 13 13 11 12 12
Wind_Direction
153 140 137 131 133 133 133 131 131 140 130 132 137 137 132 129 124 119 120 126 131 134 135 128 127 118 115 118 120 118 113 113 112 106 101 98 102 99 101 101 98 96 95
143 141 136 138 135 135 127 126 127 132 131 129 131 133 130 124 119 122 123 121 130 134 131 135 130 126 121 124 125 122 115 115 114 115 117 109 95 89 95 98 101 101 101
145 141 138 140 134 133 129 124 121 124 123 123 123 125 125 122 116 116 119 123 125 126 130 136 137 131 128 125 126 119 117 114 106 96 96 96 91 85 85 90 98 101 101
146 143 143 140 137 129 130 126 126 123 123 123 124 126 126 122 118 121 114 113 115 116 120 130 139 141 136 131 125 121 122 122 123 114 107 101 101 94 95 102 105 111 111
147 146 140 141 137 136 130 128 125 128 128 126 126 124 122 121 116 116 117 116 113 114 116 122 129 141 143 135 130 125 136 151 157 127 111 108 113 112 115 120 103 105 105
147 146 142 142 138 136 133 132 133 131 131 131 122 123 123 127 127 127 125 124 126 124 119 124 128 142 138 136 124 114 111 103 132 143 115 114 125 123 97 98 85 81 80
146 146 141 141 136 136 136 131 133 133 133 130 126 121 120 123 124 124 127 129 134 135 131 132 134 142 137 126 120 116 102 88 86 100 103 101 113 102 80 69 83 83 55
144 147 142 139 134 136 138 131 130 132 132 129 127 125 123 125 125 129 131 131 143 152 154 145 142 144 141 132 119 114 97 84 80 80 86 83 83 84 82 72 84 75 43
145 146 141 141 137 136 135 128 128 129 128 127 124 122 121 120 121 122 127 139 149 155 161 158 147 146 146 135 117 126 112 92 72 75 78 79 82 87 77 70 61 55 17
145 145 143 142 137 134 131 128 130 128 126 126 126 126 121 122 119 112 110 125 142 147 160 162 148 149 150 141 117 115 109 91 67 66 68 78 80 75 70 58 41 12 356
147 147 144 142 137 135 136 133 131 129 130 129 129 128 127 122 119 112 101 106 111 132 149 157 149 145 145 148 137 129 122 93 71 69 76 79 79 66 50 33 17 4 353
152 149 144 143 143 146 148 143 137 135 132 127 126 129 131 128 124 110 99 97 111 118 136 146 146 147 148 149 142 122 100 84 77 76 81 91 81 64 44 30 25 18 8
145 148 145 144 138 136 138 144 142 142 133 131 131 136 139 136 127 120 115 104 108 119 131 140 143 148 150 150 141 126 95 74 82 86 86 72 69 63 40 29 30 31 24
146 147 144 147 141 134 139 149 148 147 136 133 145 158 144 134 139 129 123 123 120 120 128 132 137 139 146 153 160 140 106 95 115 93 76 73 65 56 36 41 45 44 37
146 148 147 148 145 140 137 143 149 149 141 126 125 143 148 162 129 138 138 140 139 138 135 133 138 146 152 157 159 154 126 120 122 75 64 66 65 54 36 47 44 41 44
156 153 155 152 150 147 151 148 149 142 128 141 128 116 121 135 129 124 144 162 157 159 151 147 151 162 168 179 195 197 172 193 174 61 44 47 59 41 34 32 32 33 31
166 163 160 154 149 151 150 144 147 152 139 138 125 114 129 138 135 133 135 135 147 157 154 149 157 169 176 184 169 171 181 175 128 0 321 13 16 12 13 21 29 24 22
176 176 173 165 163 166 170 165 167 150 147 140 131 120 128 135 126 139 143 154 144 138 145 146 164 177 172 179 185 195 190 182 243 313 322 316 330 347 351 350 8 16 11
188 185 183 178 175 176 178 178 179 168 154 151 139 116 134 140 150 151 152 156 153 145 145 167 180 187 193 211 215 219 212 176 263 315 303 300 301 312 318 312 336 347 352
193 196 193 190 192 179 179 178 165 162 155 157 153 136 141 129 147 151 159 169 173 167 151 156 182 196 210 228 227 221 234 271 262 295 302 292 297 302 301 300 307 326 332
193 197 198 201 185 181 182 187 189 177 163 165 169 170 163 168 162 162 173 172 191 198 209 188 184 182 189 209 210 221 247 262 270 269 289 299 292 309 301 308 304 307 317
194 199 204 190 185 186 186 187 198 185 173 168 171 175 181 173 188 188 179 206 213 211 211 203 200 198 214 212 206 201 248 270 270 275 272 291 306 310 321 323 315 307 309
197 197 201 193 189 189 193 189 195 191 194 188 185 186 199 207 202 197 198 212 200 190 202 206 210 215 222 222 222 240 275 268 297 282 279 283 298 303 312 314 317 327 312
202 200 199 196 188 189 198 194 203 199 193 196 195 210 210 208 218 211 229 221 210 202 205 216 220 229 229 230 231 252 258 274 296 300 315 311 295 300 302 303 307 317 326
203 203 202 200 195 199 202 200 194 193 192 204 204 223 216 214 221 212 204 207 216 214 209 216 228 231 230 235 245 255 259 269 276 286 306 312 302 300 300 305 297 301 316
206 205 204 204 202 203 204 201 200 193 201 209 209 213 210 215 211 205 200 219 227 212 207 214 221 225 230 235 244 252 257 271 282 285 295 307 315 329 319 320 316 309 308